| time (UTC) | temp C | wind direction | speed KPH | gust KPH | rain 1hr cm | rain 24hr cm | rain mn cm | humidity % | barometer mb |
| 20260505040603 | 8 | 333 | 3.2 | 4.8 | 0.00 | 0.00 | 0.00 | 54 | 1008.5 |
| 20260505035603 | 8 | 332 | 3.2 | 9.7 | 0.00 | 0.00 | 0.00 | 53 | 1008.5 |
| 20260505035103 | 8 | 331 | 1.6 | 4.8 | 0.00 | 0.00 | 0.00 | 53 | 1008.5 |
| 20260505034603 | 8 | 329 | 3.2 | 4.8 | 0.00 | 0.00 | 0.00 | 52 | 1008.5 |
| 20260505034103 | 8 | 329 | 3.2 | 8.0 | 0.00 | 0.00 | 0.00 | 52 | 1008.5 |
| 20260505033603 | 8 | 337 | 4.8 | 8.0 | 0.00 | 0.00 | 0.00 | 51 | 1008.5 |
| 20260505033103 | 8 | 338 | 3.2 | 4.8 | 0.00 | 0.00 | 0.00 | 51 | 1008.5 |
| 20260505032603 | 8 | 336 | 4.8 | 8.0 | 0.00 | 0.00 | 0.00 | 51 | 1008.5 |
| 20260505032103 | 9 | 328 | 4.8 | 8.0 | 0.00 | 0.00 | 0.00 | 51 | 1008.5 |
| 20260505031603 | 9 | 316 | 3.2 | 8.0 | 0.00 | 0.00 | 0.00 | 51 | 1008.5 |
| 20260505031103 | 9 | 330 | 4.8 | 9.7 | 0.00 | 0.00 | 0.00 | 51 | 1008.5 |
| 20260505030603 | 9 | 332 | 8.0 | 12.9 | 0.00 | 0.00 | 0.00 | 50 | 1008.5 |
| 20260505025603 | 9 | 325 | 4.8 | 12.9 | 0.00 | 0.00 | 0.00 | 50 | 1007.8 |
| 20260505025103 | 9 | 336 | 3.2 | 12.9 | 0.00 | 0.00 | 0.00 | 50 | 1007.8 |
| 20260505024603 | 9 | 309 | 4.8 | 9.7 | 0.00 | 0.00 | 0.00 | 50 | 1007.8 |
| 20260505024103 | 9 | 306 | 3.2 | 4.8 | 0.00 | 0.00 | 0.00 | 51 | 1007.8 |
| 20260505023603 | 10 | 328 | 4.8 | 8.0 | 0.00 | 0.00 | 0.00 | 50 | 1007.8 |
| 20260505023103 | 10 | 332 | 8.0 | 12.9 | 0.00 | 0.00 | 0.00 | 50 | 1007.8 |
| 20260505022603 | 10 | 327 | 4.8 | 12.9 | 0.00 | 0.00 | 0.00 | 50 | 1007.8 |
| 20260505022103 | 10 | 330 | 6.4 | 12.9 | 0.00 | 0.00 | 0.00 | 50 | 1007.8 |
| 20260505021603 | 10 | 333 | 8.0 | 16.1 | 0.00 | 0.00 | 0.00 | 49 | 1007.8 |
| 20260505021103 | 10 | 322 | 9.7 | 16.1 | 0.00 | 0.00 | 0.00 | 49 | 1007.8 |
| 20260505020604 | 10 | 325 | 9.7 | 16.1 | 0.00 | 0.00 | 0.00 | 49 | 1007.8 |
| 20260505015603 | 10 | 324 | 9.7 | 19.3 | 0.00 | 0.00 | 0.00 | 49 | 1007.1 |
| 20260505014603 | 10 | 324 | 12.9 | 19.3 | 0.00 | 0.00 | 0.00 | 49 | 1007.1 |
| 20260505014103 | 10 | 326 | 16.1 | 24.1 | 0.00 | 0.00 | 0.00 | 48 | 1007.1 |
| 20260505013603 | 10 | 327 | 17.7 | 27.4 | 0.00 | 0.00 | 0.00 | 48 | 1007.1 |
| 20260505012603 | 10 | 324 | 16.1 | 25.7 | 0.00 | 0.00 | 0.00 | 49 | 1007.1 |
| 20260505012103 | 10 | 322 | 20.9 | 32.2 | 0.00 | 0.00 | 0.00 | 48 | 1007.1 |
| 20260505011603 | 10 | 328 | 19.3 | 27.4 | 0.00 | 0.00 | 0.00 | 48 | 1007.1 |
| 20260505010603 | 11 | 316 | 17.7 | 32.2 | 0.00 | 0.00 | 0.00 | 48 | 1007.1 |
| 20260505010103 | 11 | 315 | 19.3 | 32.2 | 0.00 | 0.00 | 0.00 | 48 | 1006.1 |
| 20260505005603 | 11 | 317 | 22.5 | 37.0 | 0.00 | 0.00 | 0.00 | 48 | 1006.1 |
| 20260505005104 | 11 | 307 | 22.5 | 33.8 | 0.00 | 0.00 | 0.00 | 48 | 1006.1 |
| 20260505004603 | 11 | 307 | 17.7 | 37.0 | 0.00 | 0.00 | 0.00 | 48 | 1006.1 |
| 20260505003603 | 11 | 321 | 24.1 | 45.1 | 0.00 | 0.00 | 0.00 | 49 | 1006.1 |
| 20260505003103 | 11 | 316 | 24.1 | 33.8 | 0.00 | 0.00 | 0.00 | 49 | 1006.1 |
| 20260505002603 | 11 | 319 | 27.4 | 37.0 | 0.00 | 0.00 | 0.00 | 50 | 1006.1 |
| 20260505002103 | 11 | 332 | 29.0 | 41.8 | 0.00 | 0.00 | 0.00 | 49 | 1006.1 |
| 20260505001103 | 12 | 342 | 25.7 | 37.0 | 0.00 | 0.00 | 0.00 | 50 | 1006.1 |
| 20260505000603 | 12 | 332 | 19.3 | 29.0 | 0.00 | 0.00 | 0.00 | 50 | 1006.1 |
| 20260504235603 | 12 | 326 | 17.7 | 33.8 | 0.00 | 0.00 | 0.00 | 46 | 1005.4 |
| 20260504235103 | 12 | 315 | 27.4 | 35.4 | 0.00 | 0.00 | 0.00 | 45 | 1005.4 |
| 20260504234603 | 12 | 330 | 20.9 | 33.8 | 0.00 | 0.00 | 0.00 | 46 | 1005.4 |
| 20260504234103 | 12 | 319 | 24.1 | 41.8 | 0.00 | 0.00 | 0.00 | 45 | 1005.4 |
| 20260504233603 | 13 | 336 | 22.5 | 33.8 | 0.00 | 0.00 | 0.00 | 45 | 1005.4 |
| 20260504233103 | 13 | 323 | 20.9 | 35.4 | 0.00 | 0.00 | 0.00 | 46 | 1005.4 |
| 20260504232603 | 12 | 316 | 19.3 | 38.6 | 0.00 | 0.00 | 0.00 | 45 | 1005.4 |
| 20260504232103 | 13 | 333 | 25.7 | 41.8 | 0.00 | 0.00 | 0.00 | 44 | 1005.4 |
| 20260504231103 | 13 | 312 | 27.4 | 38.6 | 0.00 | 0.00 | 0.00 | 44 | 1005.4 |
| 20260504230603 | 13 | 311 | 24.1 | 35.4 | 0.00 | 0.00 | 0.00 | 44 | 1005.4 |
| 20260504230103 | 13 | 304 | 22.5 | 40.2 | 0.00 | 0.00 | 0.00 | 44 | 1005.4 |
| 20260504225603 | 13 | 318 | 22.5 | 32.2 | 0.00 | 0.00 | 0.00 | 44 | 1005.4 |
| 20260504222603 | 13 | 306 | 20.9 | 37.0 | 0.00 | 0.00 | 0.00 | 42 | 1005.4 |
| 20260504222103 | 13 | 303 | 14.5 | 29.0 | 0.00 | 0.00 | 0.00 | 42 | 1005.4 |
| 20260504221603 | 13 | 314 | 22.5 | 37.0 | 0.00 | 0.00 | 0.00 | 41 | 1005.4 |
| 20260504221103 | 13 | 320 | 24.1 | 37.0 | 0.00 | 0.00 | 0.00 | 42 | 1005.4 |
| 20260504220603 | 14 | 312 | 25.7 | 37.0 | 0.00 | 0.00 | 0.00 | 42 | 1005.4 |
| 20260504215103 | 15 | 320 | 20.9 | 41.8 | 0.00 | 0.00 | 0.00 | 44 | 1004.1 |
| 20260504214603 | 15 | 322 | 19.3 | 32.2 | 0.00 | 0.00 | 0.00 | 45 | 1004.1 |
| 20260504214103 | 14 | 306 | 22.5 | 33.8 | 0.00 | 0.00 | 0.00 | 44 | 1004.1 |
| 20260504213603 | 15 | 304 | 22.5 | 38.6 | 0.00 | 0.00 | 0.00 | 43 | 1004.1 |
| 20260504213103 | 15 | 311 | 20.9 | 35.4 | 0.00 | 0.00 | 0.00 | 42 | 1004.1 |
| 20260504212603 | 15 | 314 | 25.7 | 41.8 | 0.00 | 0.00 | 0.00 | 44 | 1004.1 |
| 20260504212103 | 15 | 327 | 22.5 | 38.6 | 0.00 | 0.00 | 0.00 | 42 | 1004.1 |
| 20260504211103 | 15 | 317 | 27.4 | 41.8 | 0.00 | 0.00 | 0.00 | 41 | 1004.1 |
| 20260504210603 | 15 | 338 | 24.1 | 40.2 | 0.00 | 0.00 | 0.00 | 41 | 1004.1 |
| 20260504205603 | 16 | 313 | 20.9 | 41.8 | 0.00 | 0.00 | 0.00 | 39 | 1003.7 |
| 20260504205103 | 16 | 317 | 25.7 | 48.3 | 0.00 | 0.00 | 0.00 | 40 | 1003.7 |
| 20260504204603 | 16 | 309 | 29.0 | 41.8 | 0.00 | 0.00 | 0.00 | 39 | 1003.7 |
| 20260504204103 | 16 | 321 | 19.3 | 40.2 | 0.00 | 0.00 | 0.00 | 39 | 1003.7 |
| 20260504203604 | 16 | 314 | 22.5 | 32.2 | 0.00 | 0.00 | 0.00 | 38 | 1003.7 |
| 20260504203104 | 16 | 320 | 22.5 | 38.6 | 0.00 | 0.00 | 0.00 | 38 | 1003.7 |
| 20260504202603 | 16 | 314 | 27.4 | 38.6 | 0.00 | 0.00 | 0.00 | 37 | 1003.7 |
| 20260504202104 | 16 | 320 | 29.0 | 41.8 | 0.00 | 0.00 | 0.00 | 37 | 1003.7 |
| 20260504201603 | 16 | 320 | 27.4 | 40.2 | 0.00 | 0.00 | 0.00 | 36 | 1003.7 |
| 20260504200603 | 16 | 321 | 27.4 | 45.1 | 0.00 | 0.00 | 0.00 | 35 | 1003.7 |
| 20260504200103 | 16 | 339 | 29.0 | 45.1 | 0.00 | 0.00 | 0.00 | 34 | 1003.4 |
| 20260504195603 | 16 | 313 | 25.7 | 49.9 | 0.00 | 0.00 | 0.00 | 34 | 1003.4 |
| 20260504195103 | 17 | 322 | 29.0 | 45.1 | 0.00 | 0.00 | 0.00 | 34 | 1003.4 |
| 20260504194603 | 17 | 320 | 25.7 | 40.2 | 0.00 | 0.00 | 0.00 | 34 | 1003.4 |
| 20260504194103 | 17 | 297 | 25.7 | 41.8 | 0.00 | 0.00 | 0.00 | 36 | 1003.4 |
| 20260504193603 | 17 | 324 | 20.9 | 41.8 | 0.00 | 0.00 | 0.00 | 38 | 1003.4 |
| 20260504193103 | 17 | 325 | 22.5 | 32.2 | 0.00 | 0.00 | 0.00 | 39 | 1003.4 |
| 20260504192603 | 17 | 303 | 19.3 | 35.4 | 0.00 | 0.00 | 0.00 | 40 | 1003.4 |
| 20260504192103 | 17 | 319 | 32.2 | 48.3 | 0.00 | 0.00 | 0.00 | 39 | 1003.4 |
| 20260504191603 | 17 | 321 | 22.5 | 35.4 | 0.00 | 0.00 | 0.00 | 39 | 1003.4 |
| 20260504190603 | 17 | 323 | 27.4 | 41.8 | 0.00 | 0.00 | 0.00 | 39 | 1003.4 |
| 20260504185603 | 17 | 338 | 25.7 | 38.6 | 0.00 | 0.00 | 0.00 | 38 | 1002.7 |
| 20260504185103 | 17 | 335 | 27.4 | 40.2 | 0.00 | 0.00 | 0.00 | 38 | 1002.7 |
| 20260504184603 | 17 | 289 | 20.9 | 37.0 | 0.00 | 0.00 | 0.00 | 37 | 1002.7 |
| 20260504184103 | 17 | 306 | 32.2 | 45.1 | 0.00 | 0.00 | 0.00 | 36 | 1002.7 |
| 20260504183103 | 17 | 324 | 25.7 | 41.8 | 0.00 | 0.00 | 0.00 | 36 | 1002.7 |
| 20260504182603 | 17 | 308 | 27.4 | 38.6 | 0.00 | 0.00 | 0.00 | 36 | 1002.7 |
| 20260504182103 | 17 | 335 | 27.4 | 40.2 | 0.00 | 0.00 | 0.00 | 36 | 1002.7 |
| 20260504181603 | 17 | 347 | 22.5 | 33.8 | 0.00 | 0.00 | 0.00 | 39 | 1002.7 |
| 20260504181103 | 17 | 323 | 22.5 | 33.8 | 0.00 | 0.00 | 0.00 | 38 | 1002.7 |
| 20260504180604 | 17 | 334 | 19.3 | 38.6 | 0.00 | 0.00 | 0.00 | 37 | 1002.7 |
| 20260504175603 | 17 | 321 | 27.4 | 41.8 | 0.00 | 0.00 | 0.00 | 39 | 1002.4 |
| 20260504175103 | 17 | 313 | 16.1 | 32.2 | 0.00 | 0.00 | 0.00 | 41 | 1002.4 |
| 20260504174603 | 17 | 330 | 19.3 | 29.0 | 0.00 | 0.00 | 0.00 | 41 | 1002.4 |
| 20260504174102 | 17 | 334 | 20.9 | 32.2 | 0.00 | 0.00 | 0.00 | 41 | 1002.4 |
| 20260504173603 | 17 | 328 | 25.7 | 35.4 | 0.00 | 0.00 | 0.00 | 40 | 1002.4 |
| 20260504173103 | 17 | 310 | 22.5 | 37.0 | 0.00 | 0.00 | 0.00 | 40 | 1002.4 |
| 20260504172603 | 17 | 327 | 16.1 | 25.7 | 0.00 | 0.00 | 0.00 | 42 | 1002.4 |
| 20260504172103 | 17 | 316 | 22.5 | 32.2 | 0.00 | 0.00 | 0.00 | 41 | 1002.4 |
| 20260504171103 | 17 | 347 | 19.3 | 29.0 | 0.00 | 0.00 | 0.00 | 40 | 1002.4 |
| 20260504170603 | 17 | 340 | 19.3 | 35.4 | 0.00 | 0.00 | 0.00 | 40 | 1002.4 |
| 20260504151103 | 16 | 9 | 20.9 | 35.4 | 0.00 | 0.00 | 0.00 | 50 | 1001.0 |
| 20260504150603 | 16 | 352 | 19.3 | 32.2 | 0.00 | 0.00 | 0.00 | 52 | 1001.0 |
| 20260504140603 | 15 | 321 | 20.9 | 38.6 | 0.00 | 0.00 | 0.00 | 56 | 1001.0 |
| 20260504130603 | 15 | 259 | 6.4 | 16.1 | 0.00 | 0.00 | 0.00 | 54 | 1000.0 |
| 20260504120103 | 13 | 216 | 3.2 | 12.9 | 0.00 | 0.00 | 0.00 | 58 | 1000.7 |
| 20260504110604 | 12 | 216 | 1.6 | 9.7 | 0.00 | 0.00 | 0.00 | 60 | 1000.7 |
| 20260504100603 | 12 | 202 | 4.8 | 9.7 | 0.00 | 0.00 | 0.00 | 60 | 1001.4 |
| 20260504100103 | 12 | 207 | 3.2 | 9.7 | 0.00 | 0.00 | 0.00 | 59 | 1001.7 |
| 20260504081103 | 12 | 195 | 3.2 | 12.9 | 0.00 | 0.00 | 0.00 | 57 | 1002.7 |
| 20260504080603 | 12 | 186 | 4.8 | 8.0 | 0.00 | 0.00 | 0.00 | 57 | 1002.7 |
| 20260504050603 | 13 | 197 | 1.6 | 3.2 | 0.00 | 0.00 | 0.00 | 54 | 1004.7 |
| 20260504050103 | 13 | 197 | 0.0 | 1.6 | 0.00 | 0.00 | 0.00 | 53 | 1005.8 |
| 20260504045603 | 13 | 197 | 0.0 | 3.2 | 0.00 | 0.00 | 0.00 | 53 | 1005.8 |
| 20260504045103 | 13 | 196 | 0.0 | 3.2 | 0.00 | 0.00 | 0.00 | 52 | 1005.8 |
| 20260504044604 | 13 | 196 | 1.6 | 3.2 | 0.00 | 0.00 | 0.00 | 52 | 1005.8 |
| 20260504043603 | 13 | 196 | 0.0 | 3.2 | 0.00 | 0.00 | 0.00 | 52 | 1005.8 |
| 20260504043103 | 13 | 197 | 0.0 | 3.2 | 0.00 | 0.00 | 0.00 | 52 | 1005.8 |
| 20260504042603 | 13 | 197 | 0.0 | 1.6 | 0.00 | 0.00 | 0.00 | 51 | 1005.8 |
| 20260504042104 | 13 | 197 | 1.6 | 3.2 | 0.00 | 0.00 | 0.00 | 51 | 1005.8 |
| 20260504041603 | 14 | 197 | 3.2 | 4.8 | 0.00 | 0.00 | 0.00 | 51 | 1005.8 |
| 20260504041103 | 14 | 197 | 1.6 | 4.8 | 0.00 | 0.00 | 0.00 | 51 | 1005.8 |